Voltar ao catálogo

COSMOS 839 DEB

AtivoUNKNOWN
NORAD 10623·DEBRIS·🇷🇺 Russia

Lançado Jul 8, 1976 de Plesetsk Cosmodrome

Loading…

Próximas Passagens (próximas 24 horas)

TLE

AtualizadoSource: Space-Track

Época: Sep 14, 2026, 06:40 UTC

1 10623U 76067AX  26257.27819625  .00000174  00000-0  70743-3 0  9996
2 10623  65.7743 207.8996 0694939 358.5970  67.3069 12.43024561272385

Acompanhe COSMOS 839 DEB em tempo real com AllMySat

Download on the App Store